Time,TemperatureF,DewpointF,PressureIn,WindDirection,WindDirectionDegrees,WindSpeedMPH,WindSpeedGustMPH,Humidity,HourlyPrecipIn,Conditions,Clouds,dailyrainin,SoftwareType,DateUTC
2013-03-17 00:03:00,30.0,26.0,29.90,West,274,0.0,-999.0,84,-99.99,,,-99.99,,2013-03-17 04:03:00,
2013-03-17 00:13:00,30.0,26.0,29.90,West,274,0.0,-999.0,84,-99.99,,,-99.99,,2013-03-17 04:13:00,
2013-03-17 00:23:00,29.0,25.0,29.91,West,277,1.0,-999.0,83,-99.99,,,-99.99,,2013-03-17 04:23:00,
2013-03-17 00:33:00,29.0,25.0,29.91,West,277,0.0,-999.0,83,-99.99,,,-99.99,,2013-03-17 04:33:00,
2013-03-17 00:43:00,29.0,25.0,29.91,West,277,0.0,-999.0,83,-99.99,,,-99.99,,2013-03-17 04:43:00,
2013-03-17 00:53:00,29.0,25.0,29.91,West,276,0.0,-999.0,83,-99.99,,,-99.99,,2013-03-17 04:53:00,
2013-03-17 01:03:00,28.0,24.0,29.92,West,277,0.0,-999.0,83,-99.99,,,-99.99,,2013-03-17 05:03:00,
2013-03-17 01:12:00,28.0,24.0,29.92,West,277,0.0,-999.0,83,-99.99,,,-99.99,,2013-03-17 05:12:00,
2013-03-17 01:22:00,28.0,24.0,29.93,West,277,0.0,-999.0,83,-99.99,,,-99.99,,2013-03-17 05:22:00,
2013-03-17 01:32:00,28.0,24.0,29.93,West,277,0.0,-999.0,83,-99.99,,,-99.99,,2013-03-17 05:32:00,
2013-03-17 01:42:00,28.0,24.0,29.93,West,277,0.0,-999.0,83,-99.99,,,-99.99,,2013-03-17 05:42:00,
2013-03-17 01:52:00,27.0,22.0,29.92,West,277,0.0,-999.0,82,-99.99,,,-99.99,,2013-03-17 05:52:00,
2013-03-17 02:02:00,27.0,22.0,29.92,West,277,0.0,-999.0,82,-99.99,,,-99.99,,2013-03-17 06:02:00,
2013-03-17 02:12:00,27.0,22.0,29.92,West,277,0.0,-999.0,82,-99.99,,,-99.99,,2013-03-17 06:12:00,
2013-03-17 02:22:00,27.0,22.0,29.92,West,276,0.0,-999.0,81,-99.99,,,-99.99,,2013-03-17 06:22:00,
2013-03-17 02:32:00,27.0,20.0,29.92,West,278,0.0,-999.0,75,-99.99,,,-99.99,,2013-03-17 06:32:00,
2013-03-17 02:42:00,27.0,20.0,29.92,West,278,0.0,-999.0,75,-99.99,,,-99.99,,2013-03-17 06:42:00,
2013-03-17 02:52:00,27.0,20.0,29.93,NW,312,1.0,-999.0,73,-99.99,,,-99.99,,2013-03-17 06:52:00,
2013-03-17 03:02:00,27.0,19.0,29.93,NE,36,3.0,-999.0,70,-99.99,,,-99.99,,2013-03-17 07:02:00,
2013-03-17 03:12:00,27.0,19.0,29.93,NE,36,3.0,-999.0,70,-99.99,,,-99.99,,2013-03-17 07:12:00,
2013-03-17 03:22:00,27.0,19.0,29.93,NNE,33,3.0,-999.0,70,-99.99,,,-99.99,,2013-03-17 07:22:00,
2013-03-17 03:32:00,27.0,18.0,29.93,NNE,27,2.0,-999.0,69,-99.99,,,-99.99,,2013-03-17 07:32:00,
2013-03-17 03:42:00,27.0,18.0,29.93,NNE,27,2.0,-999.0,69,-99.99,,,-99.99,,2013-03-17 07:42:00,
2013-03-17 03:52:00,26.0,17.0,29.94,NNE,20,1.0,-999.0,69,-99.99,,,-99.99,,2013-03-17 07:52:00,
2013-03-17 04:03:00,26.0,18.0,29.95,NNE,18,1.0,-999.0,70,-99.99,,,-99.99,,2013-03-17 08:03:00,
2013-03-17 04:13:00,26.0,18.0,29.95,North,10,1.0,-999.0,70,-99.99,,,-99.99,,2013-03-17 08:13:00,
2013-03-17 04:22:00,26.0,18.0,29.95,North,10,1.0,-999.0,70,-99.99,,,-99.99,,2013-03-17 08:22:00,
2013-03-17 04:33:00,25.0,16.0,29.95,NNE,23,3.0,-999.0,69,-99.99,,,-99.99,,2013-03-17 08:33:00,
2013-03-17 04:42:00,25.0,16.0,29.95,NNE,23,3.0,-999.0,69,-99.99,,,-99.99,,2013-03-17 08:42:00,
2013-03-17 04:52:00,25.0,16.0,29.95,NE,35,4.0,-999.0,67,-99.99,,,-99.99,,2013-03-17 08:52:00,
2013-03-17 05:03:00,25.0,16.0,29.96,NE,34,3.0,-999.0,67,-99.99,,,-99.99,,2013-03-17 09:03:00,
2013-03-17 05:12:00,25.0,16.0,29.96,NE,34,3.0,-999.0,67,-99.99,,,-99.99,,2013-03-17 09:12:00,
2013-03-17 05:22:00,25.0,16.0,29.96,NE,43,2.0,-999.0,67,-99.99,,,-99.99,,2013-03-17 09:22:00,
2013-03-17 05:32:00,25.0,16.0,29.96,NE,39,2.0,-999.0,67,-99.99,,,-99.99,,2013-03-17 09:32:00,
2013-03-17 05:43:00,25.0,16.0,29.96,NE,39,2.0,-999.0,67,-99.99,,,-99.99,,2013-03-17 09:43:00,
2013-03-17 05:53:00,24.0,14.0,29.97,NNE,23,2.0,-999.0,66,-99.99,,,-99.99,,2013-03-17 09:53:00,
2013-03-17 06:03:00,24.0,14.0,29.99,NNE,22,0.0,-999.0,66,-99.99,,,-99.99,,2013-03-17 10:03:00,
2013-03-17 06:13:00,24.0,14.0,29.99,NNE,22,0.0,-999.0,66,-99.99,,,-99.99,,2013-03-17 10:13:00,
2013-03-17 06:23:00,23.0,14.0,29.99,NNW,337,1.0,-999.0,68,-99.99,,,-99.99,,2013-03-17 10:23:00,
2013-03-17 06:33:00,23.0,13.0,30.01,NW,325,1.0,-999.0,64,-99.99,,,-99.99,,2013-03-17 10:33:00,
2013-03-17 06:42:00,23.0,13.0,30.01,NW,325,1.0,-999.0,64,-99.99,,,-99.99,,2013-03-17 10:42:00,
2013-03-17 06:52:00,23.0,12.0,30.01,North,354,2.0,-999.0,62,-99.99,,,-99.99,,2013-03-17 10:52:00,
2013-03-17 07:03:00,23.0,11.0,30.02,NNE,13,2.0,-999.0,59,-99.99,,,-99.99,,2013-03-17 11:03:00,
2013-03-17 07:12:00,23.0,11.0,30.02,NNE,13,2.0,-999.0,59,-99.99,,,-99.99,,2013-03-17 11:12:00,
2013-03-17 07:22:00,23.0,10.0,30.03,ENE,59,3.0,-999.0,57,-99.99,,,-99.99,,2013-03-17 11:22:00,
2013-03-17 07:32:00,22.0,10.0,30.04,NNE,13,3.0,-999.0,58,-99.99,,,-99.99,,2013-03-17 11:32:00,
2013-03-17 07:42:00,22.0,10.0,30.04,NNE,13,3.0,-999.0,58,-99.99,,,-99.99,,2013-03-17 11:42:00,
2013-03-17 07:52:00,22.0,10.0,30.05,NNE,17,4.0,-999.0,58,-99.99,,,-99.99,,2013-03-17 11:52:00,
2013-03-17 08:02:00,22.0,10.0,30.06,North,354,3.0,-999.0,58,-99.99,,,-99.99,,2013-03-17 12:02:00,
2013-03-17 08:12:00,22.0,10.0,30.06,North,354,3.0,-999.0,58,-99.99,,,-99.99,,2013-03-17 12:12:00,
2013-03-17 08:22:00,22.0,10.0,30.07,North,354,1.0,-999.0,58,-99.99,,,-99.99,,2013-03-17 12:22:00,
2013-03-17 08:33:00,22.0,10.0,30.08,North,9,6.0,-999.0,58,-99.99,,,-99.99,,2013-03-17 12:33:00,
2013-03-17 08:43:00,22.0,10.0,30.08,North,9,6.0,-999.0,58,-99.99,,,-99.99,,2013-03-17 12:43:00,
2013-03-17 08:52:00,22.0,10.0,30.08,North,359,5.0,-999.0,60,-99.99,,,-99.99,,2013-03-17 12:52:00,
2013-03-17 09:02:00,23.0,11.0,30.08,North,359,5.0,-999.0,59,-99.99,,,-99.99,,2013-03-17 13:02:00,
2013-03-17 09:12:00,23.0,11.0,30.08,North,359,5.0,-999.0,59,-99.99,,,-99.99,,2013-03-17 13:12:00,
2013-03-17 09:22:00,23.0,11.0,30.08,NE,44,5.0,-999.0,59,-99.99,,,-99.99,,2013-03-17 13:22:00,
2013-03-17 09:32:00,24.0,12.0,30.09,NE,47,6.0,-999.0,60,-99.99,,,-99.99,,2013-03-17 13:32:00,
2013-03-17 09:42:00,24.0,12.0,30.09,NE,47,6.0,-999.0,60,-99.99,,,-99.99,,2013-03-17 13:42:00,
2013-03-17 09:52:00,25.0,13.0,30.09,NNE,31,7.0,-999.0,60,-99.99,,,-99.99,,2013-03-17 13:52:00,
2013-03-17 10:02:00,26.0,14.0,30.09,NE,48,7.0,-999.0,59,-99.99,,,-99.99,,2013-03-17 14:02:00,
2013-03-17 10:12:00,26.0,14.0,30.09,NE,48,7.0,-999.0,59,-99.99,,,-99.99,,2013-03-17 14:12:00,
2013-03-17 10:22:00,26.0,13.0,30.10,NNE,17,7.0,-999.0,58,-99.99,,,-99.99,,2013-03-17 14:22:00,
2013-03-17 10:33:00,27.0,14.0,30.11,NNE,27,6.0,-999.0,58,-99.99,,,-99.99,,2013-03-17 14:33:00,
2013-03-17 10:42:00,27.0,14.0,30.11,NNE,27,6.0,-999.0,58,-99.99,,,-99.99,,2013-03-17 14:42:00,
2013-03-17 10:52:00,27.0,13.0,30.10,NNW,335,7.0,-999.0,56,-99.99,,,-99.99,,2013-03-17 14:52:00,
2013-03-17 11:02:00,28.0,14.0,30.10,NNW,341,6.0,-999.0,55,-99.99,,,-99.99,,2013-03-17 15:02:00,
2013-03-17 11:12:00,28.0,14.0,30.10,NNW,341,6.0,-999.0,55,-99.99,,,-99.99,,2013-03-17 15:12:00,
2013-03-17 11:23:00,28.0,13.0,30.11,WNW,294,7.0,-999.0,53,-99.99,,,-99.99,,2013-03-17 15:23:00,
2013-03-17 11:33:00,29.0,14.0,30.11,NNE,17,8.0,-999.0,53,-99.99,,,-99.99,,2013-03-17 15:33:00,
2013-03-17 11:43:00,29.0,14.0,30.11,NNE,17,8.0,-999.0,53,-99.99,,,-99.99,,2013-03-17 15:43:00,
2013-03-17 11:53:00,30.0,12.0,30.11,NE,37,9.0,-999.0,47,-99.99,,,-99.99,,2013-03-17 15:53:00,
2013-03-17 12:03:00,30.0,12.0,30.11,NE,39,10.0,-999.0,46,-99.99,,,-99.99,,2013-03-17 16:03:00,
2013-03-17 12:12:00,30.0,12.0,30.11,NE,39,10.0,-999.0,46,-99.99,,,-99.99,,2013-03-17 16:12:00,
2013-03-17 12:23:00,31.0,13.0,30.11,NNE,12,7.0,-999.0,47,-99.99,,,-99.99,,2013-03-17 16:23:00,
2013-03-17 12:33:00,30.0,11.0,30.11,NNE,18,11.0,-999.0,44,-99.99,,,-99.99,,2013-03-17 16:33:00,
2013-03-17 12:43:00,30.0,11.0,30.11,NNE,18,11.0,-999.0,44,-99.99,,,-99.99,,2013-03-17 16:43:00,
2013-03-17 12:52:00,30.0,10.0,30.10,NNW,343,10.0,-999.0,42,-99.99,,,-99.99,,2013-03-17 16:52:00,
2013-03-17 13:03:00,31.0,11.0,30.10,North,10,12.0,-999.0,43,-99.99,,,-99.99,,2013-03-17 17:03:00,
2013-03-17 13:12:00,31.0,11.0,30.10,North,10,12.0,-999.0,43,-99.99,,,-99.99,,2013-03-17 17:12:00,
2013-03-17 13:22:00,31.0,9.0,30.11,NE,39,10.0,-999.0,39,-99.99,,,-99.99,,2013-03-17 17:22:00,
2013-03-17 13:33:00,32.0,10.0,30.11,NNW,327,10.0,-999.0,39,-99.99,,,-99.99,,2013-03-17 17:33:00,
2013-03-17 13:42:00,32.0,10.0,30.11,NNW,327,10.0,-999.0,39,-99.99,,,-99.99,,2013-03-17 17:42:00,
2013-03-17 13:52:00,32.0,8.0,30.11,ENE,57,8.0,-999.0,36,-99.99,,,-99.99,,2013-03-17 17:52:00,
2013-03-17 14:02:00,33.0,10.0,30.11,NNW,334,5.0,-999.0,37,-99.99,,,-99.99,,2013-03-17 18:02:00,
2013-03-17 14:12:00,33.0,10.0,30.11,NNW,334,5.0,-999.0,37,-99.99,,,-99.99,,2013-03-17 18:12:00,
2013-03-17 14:22:00,32.0,8.0,30.10,NW,316,8.0,-999.0,36,-99.99,,,-99.99,,2013-03-17 18:22:00,
2013-03-17 14:32:00,33.0,8.0,30.11,NW,323,8.0,-999.0,34,-99.99,,,-99.99,,2013-03-17 18:32:00,
2013-03-17 14:42:00,33.0,8.0,30.11,NW,323,8.0,-999.0,34,-99.99,,,-99.99,,2013-03-17 18:42:00,
2013-03-17 14:52:00,33.0,6.0,30.11,WNW,301,9.0,-999.0,32,-99.99,,,-99.99,,2013-03-17 18:52:00,
2013-03-17 15:02:00,33.0,6.0,30.11,NW,312,9.0,-999.0,32,-99.99,,,-99.99,,2013-03-17 19:02:00,
2013-03-17 15:12:00,33.0,6.0,30.11,NW,312,9.0,-999.0,32,-99.99,,,-99.99,,2013-03-17 19:12:00,
2013-03-17 15:22:00,32.0,6.0,30.12,NW,312,12.0,-999.0,32,-99.99,,,-99.99,,2013-03-17 19:22:00,
2013-03-17 15:33:00,33.0,6.0,30.11,NE,36,11.0,-999.0,32,-99.99,,,-99.99,,2013-03-17 19:33:00,
2013-03-17 15:42:00,33.0,6.0,30.11,NE,36,11.0,-999.0,32,-99.99,,,-99.99,,2013-03-17 19:42:00,
2013-03-17 15:53:00,33.0,6.0,30.12,NE,37,8.0,-999.0,31,-99.99,,,-99.99,,2013-03-17 19:53:00,
2013-03-17 16:02:00,33.0,6.0,30.12,NW,321,9.0,-999.0,32,-99.99,,,-99.99,,2013-03-17 20:02:00,
2013-03-17 16:12:00,33.0,6.0,30.12,NW,321,9.0,-999.0,32,-99.99,,,-99.99,,2013-03-17 20:12:00,
2013-03-17 16:22:00,33.0,6.0,30.12,North,10,9.0,-999.0,32,-99.99,,,-99.99,,2013-03-17 20:22:00,
2013-03-17 16:33:00,33.0,6.0,30.13,NE,47,9.0,-999.0,32,-99.99,,,-99.99,,2013-03-17 20:33:00,
2013-03-17 16:42:00,33.0,6.0,30.13,NE,47,9.0,-999.0,32,-99.99,,,-99.99,,2013-03-17 20:42:00,
2013-03-17 16:52:00,33.0,6.0,30.13,NNE,20,8.0,-999.0,32,-99.99,,,-99.99,,2013-03-17 20:52:00,
2013-03-17 17:03:00,33.0,6.0,30.14,NE,45,8.0,-999.0,31,-99.99,,,-99.99,,2013-03-17 21:03:00,
2013-03-17 17:12:00,33.0,6.0,30.14,NE,45,8.0,-999.0,31,-99.99,,,-99.99,,2013-03-17 21:12:00,
2013-03-17 17:22:00,33.0,6.0,30.14,NNW,340,7.0,-999.0,32,-99.99,,,-99.99,,2013-03-17 21:22:00,
2013-03-17 17:33:00,33.0,7.0,30.15,NNE,16,5.0,-999.0,33,-99.99,,,-99.99,,2013-03-17 21:33:00,
2013-03-17 17:43:00,33.0,7.0,30.15,NNE,16,5.0,-999.0,33,-99.99,,,-99.99,,2013-03-17 21:43:00,
2013-03-17 17:52:00,32.0,6.0,30.16,NNE,27,8.0,-999.0,33,-99.99,,,-99.99,,2013-03-17 21:52:00,
2013-03-17 18:03:00,32.0,6.0,30.16,NNE,18,7.0,-999.0,33,-99.99,,,-99.99,,2013-03-17 22:03:00,
2013-03-17 18:13:00,32.0,7.0,30.17,NW,306,5.0,-999.0,34,-99.99,,,-99.99,,2013-03-17 22:13:00,
2013-03-17 18:23:00,32.0,7.0,30.17,NW,306,5.0,-999.0,34,-99.99,,,-99.99,,2013-03-17 22:23:00,
2013-03-17 18:33:00,31.0,7.0,30.17,NNE,12,4.0,-999.0,35,-99.99,,,-99.99,,2013-03-17 22:33:00,
2013-03-17 18:42:00,31.0,7.0,30.17,NNE,12,4.0,-999.0,35,-99.99,,,-99.99,,2013-03-17 22:42:00,
2013-03-17 18:52:00,31.0,8.0,30.19,NNE,24,5.0,-999.0,37,-99.99,,,-99.99,,2013-03-17 22:52:00,
2013-03-17 19:03:00,31.0,7.0,30.20,North,359,3.0,-999.0,36,-99.99,,,-99.99,,2013-03-17 23:03:00,
2013-03-17 19:12:00,31.0,7.0,30.20,North,359,3.0,-999.0,36,-99.99,,,-99.99,,2013-03-17 23:12:00,
2013-03-17 19:22:00,31.0,8.0,30.21,NNW,332,2.0,-999.0,37,-99.99,,,-99.99,,2013-03-17 23:22:00,
2013-03-17 19:33:00,30.0,8.0,30.22,NE,38,2.0,-999.0,38,-99.99,,,-99.99,,2013-03-17 23:33:00,
2013-03-17 19:42:00,30.0,8.0,30.22,NE,38,2.0,-999.0,38,-99.99,,,-99.99,,2013-03-17 23:42:00,
2013-03-17 19:52:00,30.0,7.0,30.22,North,8,2.0,-999.0,37,-99.99,,,-99.99,,2013-03-17 23:52:00,
2013-03-17 20:03:00,30.0,8.0,30.23,NE,46,2.0,-999.0,38,-99.99,,,-99.99,,2013-03-18 00:03:00,
2013-03-17 20:12:00,30.0,8.0,30.23,NE,46,2.0,-999.0,38,-99.99,,,-99.99,,2013-03-18 00:12:00,
2013-03-17 20:22:00,30.0,8.0,30.24,NE,50,2.0,-999.0,38,-99.99,,,-99.99,,2013-03-18 00:22:00,
2013-03-17 20:33:00,29.0,7.0,30.24,NNE,16,3.0,-999.0,38,-99.99,,,-99.99,,2013-03-18 00:33:00,
2013-03-17 20:42:00,29.0,7.0,30.24,NNE,16,3.0,-999.0,38,-99.99,,,-99.99,,2013-03-18 00:42:00,
2013-03-17 20:52:00,29.0,7.0,30.25,NNW,339,2.0,-999.0,38,-99.99,,,-99.99,,2013-03-18 00:52:00,
2013-03-17 21:02:00,29.0,7.0,30.26,NNE,24,3.0,-999.0,39,-99.99,,,-99.99,,2013-03-18 01:02:00,
2013-03-17 21:12:00,29.0,7.0,30.26,NNE,24,3.0,-999.0,39,-99.99,,,-99.99,,2013-03-18 01:12:00,
2013-03-17 21:22:00,29.0,8.0,30.26,North,359,2.0,-999.0,40,-99.99,,,-99.99,,2013-03-18 01:22:00,
2013-03-17 21:33:00,28.0,7.0,30.27,North,9,1.0,-999.0,40,-99.99,,,-99.99,,2013-03-18 01:33:00,
2013-03-17 21:42:00,28.0,7.0,30.27,North,9,1.0,-999.0,40,-99.99,,,-99.99,,2013-03-18 01:42:00,
2013-03-17 21:52:00,28.0,7.0,30.27,North,10,2.0,-999.0,41,-99.99,,,-99.99,,2013-03-18 01:52:00,
2013-03-17 22:02:00,28.0,7.0,30.28,NNE,12,0.0,-999.0,41,-99.99,,,-99.99,,2013-03-18 02:02:00,
2013-03-17 22:12:00,28.0,7.0,30.28,NNE,12,0.0,-999.0,41,-99.99,,,-99.99,,2013-03-18 02:12:00,
2013-03-17 22:22:00,28.0,8.0,30.29,NE,47,1.0,-999.0,42,-99.99,,,-99.99,,2013-03-18 02:22:00,
2013-03-17 22:32:00,28.0,8.0,30.30,NNE,18,3.0,-999.0,42,-99.99,,,-99.99,,2013-03-18 02:32:00,
2013-03-17 22:42:00,28.0,8.0,30.30,NNE,18,3.0,-999.0,42,-99.99,,,-99.99,,2013-03-18 02:42:00,
2013-03-17 22:52:00,27.0,8.0,30.30,NNE,27,2.0,-999.0,43,-99.99,,,-99.99,,2013-03-18 02:52:00,
2013-03-17 23:03:00,27.0,8.0,30.31,NNW,336,2.0,-999.0,44,-99.99,,,-99.99,,2013-03-18 03:03:00,
2013-03-17 23:11:00,27.0,8.0,30.31,NNW,336,2.0,-999.0,44,-99.99,,,-99.99,,2013-03-18 03:11:00,
2013-03-17 23:22:00,27.0,8.0,30.32,NNE,31,2.0,-999.0,44,-99.99,,,-99.99,,2013-03-18 03:22:00,
2013-03-17 23:33:00,27.0,8.0,30.32,NNE,27,3.0,-999.0,44,-99.99,,,-99.99,,2013-03-18 03:33:00,
2013-03-17 23:42:00,27.0,8.0,30.32,NNE,27,3.0,-999.0,44,-99.99,,,-99.99,,2013-03-18 03:42:00,
2013-03-17 23:53:00,26.0,8.0,30.32,North,354,1.0,-999.0,45,-99.99,,,-99.99,,2013-03-18 03:53:00,